Regional Weather Roundup
Issued by NWS

Home | Current Version | Previous Version | Graphics & Text | Print | Product List | Glossary On
Versions: 1 2 3 4 5 6 7 8 9 10 11 12 13 14 15 16 17 18 19 20 21 22 23 24 25 26 27 28 29 30 31 32 33 34 35 36 37 38 39 40 41 42 43 44 45 46 47 48 49 50
000
ASUS43 KOAX 212310
RWRNE

WEATHER ROUNDUP FOR NEBRASKA
NATIONAL WEATHER SERVICE OMAHA NE
600 PM CDT MON AUG 21 2017

NOTES: SATELLITE DATA IS BEING USED TO AUGMENT CLOUD COVER ABOVE
       12000 FEET.
       "FAIR" INDICATES FEW OR NO CLOUDS BELOW 12,000 FEET WITH NO
       SIGNIFICANT WEATHER AND/OR OBSTRUCTIONS TO VISIBILITY.


NEZ001>004-019>022-054>056-220000-
NEBRASKA PANHANDLE

CITY           SKY/WX    TMP DP  RH WIND       PRES   REMARKS
SCOTTSBLUFF    SUNNY     83  46  27 NE12      30.13S
ALLIANCE       SUNNY     80  48  32 N14       30.11S
CHADRON        SUNNY     81  40  23 NE14      30.11R
GORDON         FAIR      80  51  36 N20G25    30.11R
KIMBALL        SUNNY     80  47  30 NE16      30.18S
SIDNEY         SUNNY     83  50  31 NE18G26   30.13S
$$

NEZ057>060-069>072-079>082-220000-
SOUTHWEST NEBRASKA

CITY           SKY/WX    TMP DP  RH WIND       PRES   REMARKS
NORTH PLATTE   MOSUNNY   82  70  66 NE12G22   29.99R
IMPERIAL       MOSUNNY   87  66  49 N14       30.01R
LEXINGTON      CLOUDY    85  66  53 S6        29.96R
MCCOOK         PTSUNNY   88  64  44 CALM      29.95S
OGALLALA       SUNNY     85  65  51 N16       30.04R
$$

NEZ005>010-023>029-035>040-094-220000-
NORTH CENTRAL NEBRASKA

CITY           SKY/WX    TMP DP  RH WIND       PRES   REMARKS
VALENTINE      PTSUNNY   80  61  52 N16       30.05R
AINSWORTH      CLOUDY    73  66  78 N10       30.04R
BROKEN BOW     PTSUNNY   81  70  69 N12       29.98R
O`NEILL        CLOUDY    70  67  88 N6        30.01R
ORD            SUNNY     80  67  64 N10       29.95R
THEDFORD       MOSUNNY   76  67  74 N6        30.06R
$$

NEZ041-046>049-061>064-073>077-083>087-220000-
SOUTH CENTRAL NEBRASKA

CITY           SKY/WX    TMP DP  RH WIND       PRES   REMARKS
GRAND ISLAND   MOSUNNY   85  70  60 S9        29.93F
AURORA         MOSUNNY   83  68  60 SW7       29.93S
HASTINGS       MOSUNNY   85  68  56 S9        29.95S
HEBRON         CLOUDY    86  72  62 SW8       29.95R HX  92
HOLDREGE       CLOUDY    84  65  54 S5        29.95S
KEARNEY        CLOUDY    84  69  60 S6        29.95S
YORK           CLOUDY    84  72  65 S10       29.93F
$$

NEZ011>018-030>034-042>045-220000-
NORTHEAST NEBRASKA

CITY           SKY/WX    TMP DP  RH WIND       PRES   REMARKS
NORFOLK        MOSUNNY   75  67  76 E8        29.95R
ALBION         MOSUNNY   80  70  71 E8        29.95S
BLAIR          CLOUDY    82  74  74 E12       29.96F
COLUMBUS       MOSUNNY   81  73  76 SE3       29.91F
FREMONT        PTSUNNY   82  73  72 SE6       29.93F
TEKAMAH        PTSUNNY   76  66  71 E12       29.93R
WAYNE          CLOUDY    71  68  91 NE9       29.98R
$$

NEZ050>053-065>068-078-088>093-220000-
SOUTHEAST NEBRASKA

CITY           SKY/WX    TMP DP  RH WIND       PRES   REMARKS
LINCOLN        CLOUDY    85  72  65 S7        29.95R HX  91
OMAHA EPPLEY   CLOUDY    82  73  74 E7        29.95R
BEATRICE       CLOUDY    84  72  65 S6        29.95R HX  90
FALLS CITY     PTSUNNY   80  76  87 SE7       29.95S
NEBRASKA CITY  CLOUDY    83  76  78 S7        29.96R HX  91
PLATTSMOUTH    CLOUDY    83  72  69 CALM      29.97R
$$

NEZ044-045-051>053-067-220000-
OMAHA AREA

CITY           SKY/WX    TMP DP  RH WIND       PRES   REMARKS
OMAHA EPPLEY   CLOUDY    82  73  74 E7        29.95R
BLAIR          CLOUDY    82  74  74 E12       29.96F
FREMONT        PTSUNNY   82  73  72 SE6       29.93F
MILLARD        PTSUNNY   85  73  67 S8        29.95S HX  91
OFFUTT AFB     MOSUNNY   83  72  67 S3        29.95R
PLATTSMOUTH    CLOUDY    83  72  69 CALM      29.97R
WAHOO          FAIR      84  73  70 S10       29.93F HX  90
$$



USA.gov is the U.S. government's official web portal to all federal, state and local government web resources and services.